Weather History for KC29 - May, 2013

Change the Weather History Date:

Tuesday, May 7, 2013

  Actual Average (KMSN) Record (KMSN)
Temperature  
Mean Temperature 64 °F 54 °F  
Max Temperature 77 °F 66 °F 86 °F (1880)
Min Temperature 51 °F 43 °F 24 °F (1989)
Degree Days  
Heating Degree Days 1 11  
Month to date heating degree days 82  
Since 1 July heating degree days 7089  
Cooling Degree Days 0 0  
Month to date cooling degree days 0  
Year to date cooling degree days 4  
Growing Degree Days 14 (Base 50)    
Moisture  
Dew Point 41 °F    
Average Humidity 51    
Maximum Humidity 91    
Minimum Humidity 15    
Precipitation  
Precipitation 0.00 in 0.11 in 1.19 in (1904)
Month to date precipitation 0.76  
Year to date precipitation 9.04  
Snow  
Snow 0.00 in 0.00 in T in (1974)
Month to date snowfall 0.1  
Since 1 July snowfall 50.8  
Snow Depth -    
Sea Level Pressure  
Sea Level Pressure 30.03 in    
Wind  
Wind Speed 1 mph (East)    
Max Wind Speed 8 mph    
Max Gust Speed -    
Visibility 10 miles    
Events      
T = Trace of Precipitation, MM = Missing Value Source: NWS Daily Summary

Daily Weather History Graph

Daily Weather History Graph

Search for Another Location

Airport or City:

Trip Planner

Search our weather history database for the weather conditions in past years. The results will help you decide how hot, cold, wet, or windy it might be!

Date:

Astronomy

May. 07, 2013 Rise Set
Actual Time 5:43 AM CDT 8:06 PM CDT
Civil Twilight 5:11 AM CDT 8:38 PM CDT
Nautical Twilight 4:32 AM CDT 9:18 PM CDT
Astronomical Twilight 3:48 AM CDT 10:02 PM CDT
Moon 4:21 AM CDT (5/7) 6:03 PM CDT (5/7)
Length of Visible Light 15h 26m
Length of Day
14h 23m
Waning Crescent, 5% of the Moon is Illuminated
May 7
Waning Crescent
May 9
New
May 17
First Quarter
May 24
Full
May 31
Last Quarter

Hourly Weather History & Observations

Time (CDT) Temp. Dew Point Humidity Pressure Visibility Wind Dir Wind Speed Gust Speed Precip Events Conditions
12:15 AM 55.0 °F 48.6 °F 79% 30.03 in 10.0 mi Calm Calm - N/A   Overcast
12:35 AM 54.0 °F 48.0 °F 80% 30.03 in 10.0 mi Calm Calm - N/A   Scattered Clouds
12:55 AM 54.0 °F 48.2 °F 81% 30.03 in 10.0 mi Calm Calm - N/A   Scattered Clouds
1:15 AM 53.4 °F 45.7 °F 75% 30.03 in 10.0 mi Calm Calm - N/A   Overcast
1:35 AM 51.4 °F 48.2 °F 89% 30.03 in 10.0 mi Calm Calm - N/A   Overcast
1:55 AM 52.0 °F 49.1 °F 90% 30.04 in 10.0 mi Calm Calm - N/A   Overcast
2:15 AM 52.2 °F 49.3 °F 90% 30.04 in 10.0 mi Calm Calm - N/A   Overcast
2:35 AM 51.6 °F 48.2 °F 88% 30.03 in 10.0 mi Calm Calm - N/A   Overcast
3:15 AM 51.3 °F 48.0 °F 89% 30.03 in 10.0 mi Calm Calm - N/A   Overcast
3:35 AM 51.6 °F 47.5 °F 86% 30.04 in 10.0 mi Calm Calm - N/A   Overcast
3:55 AM 52.0 °F 48.4 °F 88% 30.03 in 10.0 mi Calm Calm - N/A   Overcast
4:15 AM 51.8 °F 48.4 °F 88% 30.04 in 10.0 mi Calm Calm - N/A   Overcast
4:35 AM 51.8 °F 48.4 °F 88% 30.04 in 10.0 mi Calm Calm - N/A   Overcast
4:55 AM 52.0 °F 49.1 °F 90% 30.04 in 10.0 mi Calm Calm - N/A   Overcast
5:15 AM 51.8 °F 49.3 °F 91% 30.04 in 10.0 mi Calm Calm - N/A   Overcast
5:35 AM 52.2 °F 48.7 °F 88% 30.04 in 10.0 mi Calm Calm - N/A   Overcast
5:55 AM 52.3 °F 49.5 °F 90% 30.05 in 10.0 mi Calm Calm - N/A   Overcast
6:15 AM 52.9 °F 49.5 °F 88% 30.05 in 10.0 mi Calm Calm - N/A   Overcast
6:35 AM 53.6 °F 50.0 °F 88% 30.05 in 10.0 mi Calm Calm - N/A   Overcast
6:55 AM 54.1 °F 51.3 °F 90% 30.06 in 10.0 mi Calm Calm - N/A   Overcast
7:15 AM 56.1 °F 49.1 °F 77% 30.06 in 10.0 mi Calm Calm - N/A   Overcast
7:35 AM 59.2 °F 46.4 °F 63% 30.07 in 10.0 mi Calm Calm - N/A   Overcast
7:55 AM 62.4 °F 39.2 °F 42% 30.07 in 10.0 mi Calm Calm - N/A   Overcast
8:15 AM 63.3 °F 43.2 °F 48% 30.07 in 10.0 mi Calm Calm - N/A   Overcast
8:35 AM 64.4 °F 42.4 °F 45% 30.08 in 10.0 mi Calm Calm - N/A   Overcast
8:55 AM 66.2 °F 40.6 °F 39% 30.08 in 10.0 mi Calm Calm - N/A   Mostly Cloudy
9:15 AM 67.5 °F 43.7 °F 42% 30.08 in 10.0 mi Calm Calm - N/A   Scattered Clouds
9:35 AM 68.5 °F 41.4 °F 37% 30.07 in 10.0 mi NE 3.5 mph - N/A   Scattered Clouds
9:55 AM 69.1 °F 41.9 °F 37% 30.07 in 10.0 mi Calm Calm - N/A   Scattered Clouds
10:15 AM 70.9 °F 41.0 °F 34% 30.07 in 10.0 mi East 3.5 mph - N/A   Mostly Cloudy
10:35 AM 71.4 °F 39.9 °F 32% 30.07 in 10.0 mi Calm Calm - N/A   Mostly Cloudy
10:55 AM 72.0 °F 39.9 °F 31% 30.07 in 10.0 mi East 4.6 mph - N/A   Scattered Clouds
11:15 AM 72.7 °F 37.0 °F 27% 30.06 in 10.0 mi NNE 4.6 mph - N/A   Clear
11:35 AM 73.4 °F 36.9 °F 26% 30.06 in 10.0 mi ENE 4.6 mph - N/A   Scattered Clouds
11:55 AM 74.3 °F 36.9 °F 26% 30.05 in 10.0 mi ESE 4.6 mph - N/A   Scattered Clouds
12:15 PM 73.9 °F 34.3 °F 24% 30.05 in 10.0 mi East 6.9 mph - N/A   Clear
12:35 PM 74.7 °F 32.2 °F 21% 30.05 in 10.0 mi ESE 6.9 mph - N/A   Clear
12:55 PM 74.8 °F 28.4 °F 18% 30.04 in 10.0 mi SSE 6.9 mph - N/A   Clear
1:15 PM 75.0 °F 30.4 °F 19% 30.04 in 10.0 mi SSE 4.6 mph - N/A   Clear
1:35 PM 75.6 °F 31.5 °F 20% 30.03 in 10.0 mi SE 8.1 mph - N/A   Clear
1:55 PM 76.3 °F 32.9 °F 21% 30.03 in 10.0 mi ESE 4.6 mph - N/A   Clear
2:15 PM 77.0 °F 33.1 °F 20% 30.03 in 10.0 mi East 6.9 mph - N/A   Clear
2:35 PM 77.4 °F 33.4 °F 20% 30.02 in 10.0 mi East 6.9 mph - N/A   Scattered Clouds
2:55 PM 77.0 °F 28.0 °F 17% 30.02 in 10.0 mi Calm Calm - N/A   Clear
3:15 PM 77.7 °F 30.2 °F 18% 30.01 in 10.0 mi East 8.1 mph - N/A   Clear
3:35 PM 77.7 °F 31.3 °F 18% 30.01 in 10.0 mi East 5.8 mph - N/A   Clear
3:55 PM 76.8 °F 29.8 °F 18% 30.01 in 10.0 mi ENE 5.8 mph - N/A   Scattered Clouds
4:15 PM 75.7 °F 30.6 °F 19% 30.00 in 10.0 mi NNE 4.6 mph - N/A   Scattered Clouds
4:35 PM 75.9 °F 28.9 °F 18% 30.00 in 10.0 mi Calm Calm - N/A   Mostly Cloudy
4:55 PM 76.1 °F 32.5 °F 20% 30.00 in 10.0 mi ENE 4.6 mph - N/A   Mostly Cloudy
5:15 PM 76.6 °F 25.5 °F 15% 30.00 in 10.0 mi ENE 3.5 mph - N/A   Scattered Clouds
5:35 PM 76.3 °F 28.2 °F 17% 30.00 in 10.0 mi Calm Calm - N/A   Clear
5:55 PM 76.5 °F 28.0 °F 17% 30.00 in 10.0 mi Calm Calm - N/A   Scattered Clouds
6:15 PM 77.0 °F 26.8 °F 16% 30.00 in 7.0 mi Calm Calm - N/A   Clear
6:35 PM 76.1 °F 26.4 °F 16% 30.00 in 10.0 mi Calm Calm - N/A   Clear
6:55 PM 74.7 °F 36.3 °F 25% 30.00 in 10.0 mi East 3.5 mph - N/A   Clear
7:15 PM 73.8 °F 37.4 °F 27% 30.00 in 10.0 mi Calm Calm - N/A   Clear
7:35 PM 73.0 °F 33.6 °F 24% 30.00 in 10.0 mi East 3.5 mph - N/A   Clear
7:55 PM 69.1 °F 36.1 °F 30% 30.00 in 10.0 mi East 3.5 mph - N/A   Scattered Clouds
8:15 PM 64.8 °F 43.3 °F 46% 30.00 in 10.0 mi Calm Calm - N/A   Scattered Clouds
8:35 PM 63.9 °F 40.6 °F 43% 30.00 in 10.0 mi Calm Calm - N/A   Clear
8:55 PM 62.2 °F 44.2 °F 52% 30.00 in 10.0 mi Calm Calm - N/A   Clear
9:15 PM 59.5 °F 48.6 °F 67% 30.00 in 10.0 mi Calm Calm - N/A   Clear
9:35 PM 59.9 °F 46.0 °F 60% 30.01 in 10.0 mi Calm Calm - N/A   Clear
9:55 PM 57.6 °F 43.9 °F 60% 30.01 in 10.0 mi Calm Calm - N/A   Clear
10:15 PM 57.2 °F 46.8 °F 68% 30.02 in 10.0 mi Calm Calm - N/A   Clear
10:35 PM 54.9 °F 45.9 °F 72% 30.02 in 10.0 mi Calm Calm - N/A   Clear
10:55 PM 54.1 °F 45.3 °F 72% 30.02 in 10.0 mi Calm Calm - N/A   Clear
11:15 PM 54.1 °F 47.1 °F 77% 30.02 in 10.0 mi Calm Calm - N/A   Clear
11:35 PM 54.5 °F 45.3 °F 71% 30.02 in 10.0 mi Calm Calm - N/A   Clear
11:55 PM 53.4 °F 48.4 °F 83% 30.02 in 10.0 mi Calm Calm - N/A   Clear